DW0110 Weather Reports


time (UTC)temp
C
wind
direction
speed
KPH
gust
KPH
rain 1hr
cm
rain 24hr
cm
rain mn
cm
humidity
%
barometer
mb
20260503224335 13 217 0.0 8.0 0.00 0.00 0.00 46 1008.6
20260503223829 13 217 0.0 6.4 0.00 0.00 0.00 46 1008.6
20260503223345 13 217 0.0 6.4 0.00 0.00 0.00 47 1008.5
20260503222838 13 217 0.0 0.0 0.00 0.00 0.00 48 1008.4
20260503222332 13 217 0.0 3.2 0.00 0.00 0.00 48 1008.4
20260503221828 13 217 0.0 6.4 0.00 0.00 0.00 46 1008.5
20260503221337 13 217 0.0 6.4 0.00 0.00 0.00 47 1008.5
20260503220829 13 217 0.0 9.7 0.00 0.00 0.00 47 1008.8
20260503220323 13 217 0.0 9.7 0.00 0.00 0.00 46 1008.7
20260503215838 13 217 0.0 12.9 0.00 0.00 0.00 46 1008.8
20260503215330 13 217 4.8 12.9 0.00 0.00 0.00 45 1008.9
20260503214825 13 217 0.0 12.9 0.00 0.00 0.00 45 1008.8
20260503214338 13 217 0.0 3.2 0.00 0.00 0.00 46 1008.7
20260503213828 13 217 0.0 14.5 0.00 0.00 0.00 45 1008.8
20260503213323 13 217 4.8 16.1 0.00 0.00 0.00 43 1008.8
20260503212858 13 216 1.6 16.1 0.00 0.00 0.00 45 1008.7
20260503212329 13 216 1.6 9.7 0.00 0.00 0.00 44 1008.5
20260503211823 13 216 1.6 9.7 0.00 0.00 0.00 44 1008.6
20260503211336 13 216 1.6 11.3 0.00 0.00 0.00 42 1008.5
20260503210850 14 216 1.6 16.1 0.00 0.00 0.00 43 1008.6
20260503210322 14 216 1.6 16.1 0.00 0.00 0.00 42 1008.6
20260503205836 14 216 3.2 12.9 0.00 0.00 0.00 42 1008.6
20260503205332 14 215 1.6 11.3 0.00 0.00 0.00 44 1008.6
20260503204825 13 215 0.0 8.0 0.00 0.00 0.00 45 1008.6
20260503204319 13 215 0.0 3.2 0.00 0.00 0.00 42 1008.8
20260503203835 13 215 0.0 8.0 0.00 0.00 0.00 44 1008.8
20260503203329 14 215 1.6 14.5 0.00 0.00 0.00 44 1008.9
20260503202826 13 215 4.8 14.5 0.00 0.00 0.00 43 1008.9
20260503202322 13 215 0.0 12.9 0.00 0.00 0.00 45 1009.0
20260503201839 13 215 0.0 12.9 0.00 0.00 0.00 44 1009.1
20260503201333 13 215 0.0 8.0 0.00 0.00 0.00 43 1009.1
20260503200826 13 215 0.0 8.0 0.00 0.00 0.00 44 1009.2
20260503200342 13 215 0.0 6.4 0.00 0.00 0.00 46 1009.4
20260503195835 13 215 0.0 9.7 0.00 0.00 0.00 46 1009.4
20260503195329 13 215 0.0 9.7 0.00 0.00 0.00 45 1009.5
20260503194822 13 215 0.0 1.6 0.00 0.00 0.00 45 1009.6
20260503194336 13 215 0.0 8.0 0.00 0.00 0.00 45 1009.6
20260503193830 13 215 0.0 8.0 0.00 0.00 0.00 43 1009.8
20260503193323 12 215 1.6 8.0 0.00 0.00 0.00 46 1009.8
20260503192835 12 215 0.0 6.4 0.00 0.00 0.00 45 1010.0
20260503192330 12 215 0.0 12.9 0.00 0.00 0.00 43 1010.2
20260503191846 12 215 3.2 12.9 0.00 0.00 0.00 42 1010.3
20260503191338 13 215 0.0 14.5 0.00 0.00 0.00 43 1010.3
20260503190831 13 215 1.6 14.5 0.00 0.00 0.00 44 1010.4
20260503190329 12 215 0.0 8.0 0.00 0.00 0.00 43 1010.4
20260503185844 12 215 1.6 8.0 0.00 0.00 0.00 45 1010.4
20260503185337 12 215 0.0 12.9 0.00 0.00 0.00 44 1010.5
20260503184828 12 215 0.0 16.1 0.00 0.00 0.00 43 1010.6
20260503184320 12 215 3.2 11.3 0.00 0.00 0.00 43 1010.7
20260503183835 12 215 0.0 6.4 0.00 0.00 0.00 45 1010.8
20260503183329 12 215 0.0 20.9 0.00 0.00 0.00 47 1010.7
20260503182844 12 215 4.8 20.9 0.00 0.00 0.00 44 1010.9
20260503182335 12 214 4.8 16.1 0.00 0.00 0.00 45 1010.9
20260503181826 12 213 3.2 11.3 0.00 0.00 0.00 47 1010.9
20260503181343 12 213 3.2 11.3 0.00 0.00 0.00 49 1010.9
20260503180838 12 213 0.0 11.3 0.00 0.00 0.00 49 1011.0
20260503180332 12 213 1.6 11.3 0.00 0.00 0.00 49 1011.0
20260503175826 12 213 0.0 11.3 0.00 0.00 0.00 49 1011.0
20260503175319 12 213 3.2 19.3 0.00 0.00 0.00 50 1010.9
20260503174836 12 213 0.0 19.3 0.00 0.00 0.00 50 1011.1
20260503174330 12 213 4.8 17.7 0.00 0.00 0.00 50 1011.1
20260503173826 12 213 3.2 11.3 0.00 0.00 0.00 49 1011.0
20260503173319 12 213 1.6 11.3 0.00 0.00 0.00 50 1011.1
20260503172836 12 213 0.0 12.9 0.00 0.00 0.00 50 1011.2
20260503172329 12 213 1.6 19.3 0.00 0.00 0.00 52 1011.3
20260503171823 12 213 0.0 19.3 0.00 0.00 0.00 51 1011.2
20260503171339 12 211 1.6 17.7 0.00 0.00 0.00 52 1011.2
20260503170851 12 211 0.0 12.9 0.00 0.00 0.00 53 1011.3
20260503170344 12 211 0.0 12.9 0.00 0.00 0.00 52 1011.5
20260503150838 9 211 0.0 0.0 0.00 0.00 0.00 58 1012.7
20260503150335 9 211 0.0 6.4 0.00 0.00 0.00 60 1012.8
20260503131325 6 211 0.0 0.0 0.00 0.00 0.00 65 1013.8
20260503130840 6 211 0.0 0.0 0.00 0.00 0.00 66 1013.8
20260503130350 6 211 0.0 0.0 0.00 0.00 0.00 67 1013.8
20260503110828 2 211 0.0 0.0 0.00 0.00 0.00 88 1013.6
20260503110323 2 211 0.0 0.0 0.00 0.00 0.00 88 1013.5
20260503090358 2 211 0.0 0.0 0.00 0.00 0.00 86 1013.1
20260503081327 2 211 0.0 0.0 0.00 0.00 0.00 84 1013.3
20260503080821 2 211 0.0 0.0 0.00 0.00 0.00 84 1013.3
20260503080335 2 211 0.0 0.0 0.00 0.00 0.00 84 1013.3
20260503072818 3 211 0.0 0.0 0.00 0.00 0.00 83 1013.3
20260503072331 3 211 0.0 0.0 0.00 0.00 0.00 83 1013.3
20260503071828 3 211 0.0 0.0 0.00 0.00 0.00 82 1013.3
20260503071321 3 211 0.0 0.0 0.00 0.00 0.00 82 1013.3
20260503070857 3 211 0.0 0.0 0.00 0.00 0.00 82 1013.3
20260503070330 3 211 0.0 0.0 0.00 0.00 0.00 82 1013.3
20260503060320 4 211 0.0 0.0 0.00 0.00 0.00 80 1013.5
20260503054843 5 211 0.0 0.0 0.00 0.00 0.00 79 1013.4
20260503054336 5 211 0.0 0.0 0.00 0.00 0.00 79 1013.6
20260503053852 5 211 0.0 0.0 0.00 0.00 0.00 79 1013.6
20260503053324 5 211 0.0 0.0 0.00 0.00 0.00 79 1013.7
20260503052818 5 211 0.0 0.0 0.00 0.00 0.00 79 1013.7
20260503052335 5 211 0.0 0.0 0.00 0.00 0.00 79 1013.7
20260503051828 5 211 0.0 0.0 0.00 0.00 0.00 79 1013.8
20260503051339 5 211 0.0 0.0 0.00 0.00 0.00 79 1013.9
20260503050835 5 211 0.0 0.0 0.00 0.00 0.00 78 1013.9
20260503050351 5 211 0.0 0.0 0.00 0.00 0.00 79 1013.9
20260503045824 5 211 0.0 0.0 0.00 0.00 0.00 79 1013.9
20260503045335 5 211 0.0 0.0 0.00 0.00 0.00 79 1013.9
20260503044849 5 211 0.0 0.0 0.00 0.00 0.00 78 1014.0
20260503044338 5 211 0.0 0.0 0.00 0.00 0.00 78 1013.9
20260503043830 5 211 0.0 0.0 0.00 0.00 0.00 79 1014.0
20260503043322 5 211 0.0 0.0 0.00 0.00 0.00 78 1014.0
20260503042837 5 211 0.0 0.0 0.00 0.00 0.00 78 1014.1
20260503042351 5 211 0.0 0.0 0.00 0.00 0.00 78 1014.1
20260503041846 5 211 0.0 0.0 0.00 0.00 0.00 78 1014.1
20260503041341 5 211 0.0 0.0 0.00 0.00 0.00 78 1014.1
20260503040857 5 211 0.0 0.0 0.00 0.00 0.00 78 1014.1
20260503040327 5 211 0.0 0.0 0.00 0.00 0.00 78 1014.1
20260503035818 5 211 0.0 0.0 0.00 0.00 0.00 78 1014.2
20260503035336 5 211 0.0 0.0 0.00 0.00 0.00 78 1014.2
20260503034829 5 211 0.0 0.0 0.00 0.00 0.00 78 1014.1
20260503034326 5 211 0.0 0.0 0.00 0.00 0.00 78 1014.2
20260503033819 5 211 0.0 0.0 0.00 0.00 0.00 78 1014.2
20260503033354 5 211 0.0 0.0 0.00 0.00 0.00 78 1014.2
20260503032826 5 211 0.0 0.0 0.00 0.00 0.00 78 1014.3
20260503032321 5 211 0.0 0.0 0.00 0.00 0.00 78 1014.3
20260503031835 5 211 0.0 0.0 0.00 0.00 0.00 78 1014.2
20260503031327 5 211 0.0 0.0 0.00 0.00 0.00 79 1014.2
20260503030839 5 211 0.0 0.0 0.00 0.00 0.00 78 1014.3
20260503030327 5 211 0.0 0.0 0.00 0.00 0.00 79 1014.3
20260503025821 5 211 0.0 0.0 0.00 0.00 0.00 79 1014.3
20260503025335 5 211 0.0 0.0 0.00 0.00 0.00 78 1014.3
20260503024829 5 211 0.0 0.0 0.00 0.00 0.00 78 1014.4
20260503024345 5 211 0.0 0.0 0.00 0.00 0.00 78 1014.4
20260503023859 5 211 0.0 0.0 0.00 0.00 0.00 78 1014.5
20260503023331 5 211 0.0 0.0 0.00 0.00 0.00 78 1014.5
20260503022824 5 211 0.0 0.0 0.00 0.00 0.00 78 1014.5
20260503022339 5 211 0.0 0.0 0.00 0.00 0.00 78 1014.6
20260503021832 5 211 0.0 0.0 0.00 0.00 0.00 78 1014.6
20260503021330 5 211 0.0 0.0 0.00 0.00 0.00 78 1014.6
20260503020826 5 211 0.0 0.0 0.00 0.00 0.00 78 1014.7
20260503020320 5 211 0.0 0.0 0.00 0.00 0.00 78 1014.7
20260503015818 5 211 0.0 0.0 0.00 0.00 0.00 78 1014.6
20260503015336 5 211 0.0 0.0 0.00 0.00 0.00 77 1014.6
20260503014854 5 211 0.0 0.0 0.00 0.00 0.00 77 1014.6
20260503014326 5 211 0.0 0.0 0.00 0.00 0.00 77 1014.6
20260503013823 5 211 0.0 0.0 0.00 0.00 0.00 77 1014.6
20260503013337 5 211 0.0 0.0 0.00 0.00 0.00 77 1014.5
20260503012852 5 211 0.0 0.0 0.00 0.00 0.00 77 1014.6
20260503012325 5 211 0.0 0.0 0.00 0.00 0.00 78 1014.5
20260503011837 5 211 0.0 0.0 0.00 0.00 0.00 78 1014.5
20260503011327 5 211 0.0 0.0 0.00 0.00 0.00 78 1014.5
20260503010900 5 211 0.0 0.0 0.00 0.00 0.00 78 1014.5
20260503010331 5 211 0.0 0.0 0.00 0.00 0.00 78 1014.5
20260503005845 5 211 0.0 0.0 0.00 0.00 0.00 77 1014.5
20260503005358 5 211 0.0 0.0 0.00 0.00 0.00 78 1014.4
20260503004827 5 211 0.0 0.0 0.00 0.00 0.00 77 1014.4
20260503004401 5 211 0.0 0.0 0.00 0.00 0.00 77 1014.3
20260503003835 5 211 0.0 0.0 0.00 0.00 0.00 77 1014.3
20260503003328 5 211 0.0 0.0 0.00 0.00 0.00 77 1014.2
20260503002822 5 211 0.0 0.0 0.00 0.00 0.00 77 1014.2
20260503002336 5 211 0.0 0.0 0.00 0.00 0.00 77 1014.2
20260503001827 5 211 0.0 0.0 0.00 0.00 0.00 77 1014.2
20260503001321 5 211 0.0 0.0 0.00 0.00 0.00 77 1014.1
20260503000857 5 211 0.0 0.0 0.00 0.00 0.00 77 1014.1
20260503000330 5 211 0.0 0.0 0.00 0.00 0.00 78 1014.0
20260502235823 5 211 0.0 0.0 0.00 0.00 0.00 78 1014.1
20260502235317 5 211 0.0 0.0 0.00 0.00 0.00 79 1014.0
20260502234833 5 211 0.0 0.0 0.00 0.00 0.00 79 1014.1
20260502234346 5 211 0.0 0.0 0.00 0.00 0.00 78 1014.0
20260502233836 5 211 0.0 0.0 0.00 0.00 0.00 77 1013.9
20260502233332 5 211 0.0 0.0 0.00 0.00 0.00 77 1014.0
20260502232844 5 211 0.0 0.0 0.00 0.00 0.00 78 1013.9
20260502232337 5 211 0.0 0.0 0.00 0.00 0.00 79 1013.9
20260502231853 5 211 0.0 8.0 0.00 0.00 0.00 80 1013.9
20260502231325 5 211 1.6 8.0 0.00 0.00 0.00 81 1013.8
20260502230819 5 211 0.0 1.6 0.00 0.00 0.00 82 1013.9
20260502230335 5 211 0.0 8.0 0.00 0.00 0.00 84 1013.8
20260502225829 5 211 1.6 8.0 0.00 0.00 0.00 87 1013.8
20260502225344 6 211 0.0 0.0 0.00 0.00 0.00 88 1013.8
20260502224839 6 211 0.0 0.0 0.00 0.00 0.00 88 1013.7